星链-37251(STARLINK-37251)

导读

STARLINK-37251(NORAD编号68514)是SpaceX星链(Starlink)卫星互联网星座中的一颗低轨通信卫星。星链计划旨在为全球提供高速低延迟互联网服务,该卫星属于星链批量部署的卫星之一,运行在近地轨道,主要用于补充和扩展星链星座的全球网络覆盖能力,满足更多地区用户的接入需求,依托低轨轨道的优势,可为偏远地区、海上及空中场景提供卫星互联网连接服务,目前在轨运行参与星座组网。

基本信息
目录编号:
68514
目录名称:
STARLINK-37251
国际标识:
2026-068G
轨道中心:
EARTH
卫星名称:
星链-37251
卫星全名:
星链-37251(STARLINK-37251)
卫星状态:
在轨 (已飞行165 天)
发射日期:
2026-03-30 UTC
国别 :
美国 (US)
星等 :
--
该卫星已列入 空间交会检测服务 Space Conjunction Data Service (SCDS) ,当前飞行风险评估等级: 高风险
轨道信息
数据来源 国际轨道数据 AOE轨道数据
星历时间 2026-09-11T13:57:55+0800
9小时前
查看轨道信息
2026-09-05T08:00:00+0800
6天前
查看轨道信息
半长轴 6840.823km 6840.884km
偏心率 0.0001354 0.0000884
轨道倾角 53.161° 53.156°
近地点辐角 82.593° 31.236°
升交点赤经 343.212° 12.425°
平近点角 277.523° 353.758°
近地点 461.759km 462.142km
远地点 463.613km 463.352km
周期 93.847分钟 93.849分钟
每日圈数 15.34406 15.343854
详细信息
固有亮度:
5
最大亮度:
2.5
卫星平台:
Starlink V1.0
覆盖范围:
全球
运营商:
太空探索技术公司
运营商所在国:
美国
制造商(研发单位):
太空探索技术公司
制造商所在国:
美国
使用方式:
暂无
卫星简介
Starlink 计划是 SpaceX 推出的全球卫星互联网项目,通过发射低轨道卫星,为全球尤其是偏远地区提供高速、低延迟的互联网服务。自 2019 年起,Starlink 已部署数千颗卫星,旨在缩小全球数字鸿沟,推动互联网普及。该项目还为军事、航空等行业提供通信支持,带来广泛经济效益。
2D轨道图
3D轨道图
轨道高度分析图
轨道倾角分析图
轨道综合分析图
查看轨道综合分析图
与全量物体交会距离演化趋势
与全量物体交会风险概率演化趋势